Regional Weather Roundup
Issued by NWS Charleston, SC

Current Version | Previous Version | Graphics & Text | Print | Product List | Glossary On
Versions: 1 2 3 4 5 6 7 8 9 10 11 12 13 14 15 16 17 18 19 20 21 22 23 24 25 26 27 28 29 30 31 32 33 34 35 36 37 38 39 40 41 42 43 44 45 46 47 48 49 50
000
ASUS42 KCHS 120927
RWRCHS

REGIONAL WEATHER ROUNDUP
NATIONAL WEATHER SERVICE CHARLESTON SC
400 AM EST TUE DEC 12 2017

NOTE: "FAIR" INDICATES FEW OR NO CLOUDS BELOW 12,000 FEET WITH NO
SIGNIFICANT WEATHER AND/OR OBSTRUCTIONS TO VISIBILITY.

NOT ALL STATIONS ARE QUALITY CONTROLLED. USE DATA WITH CAUTION...
ESPECIALLY DEWPOINT OBSERVATIONS.

SCZ027-030-031-034>040-042>050-121000-
...SOUTHEAST SOUTH CAROLINA...

CITY           SKY/WX    TMP DP  RH WIND       PRES   REMARKS
N CHARLESTON   CLEAR     44  38  79 SW7       29.93F
WATERFRONT PRK   N/A     50  41  71 SW6       29.80F
JOHNS ISLAND   FAIR      48  39  71 SW7       29.93F
PINOPOLIS        N/A     46  39  76 SW8G15    29.85F
MONCKS CORNER  FAIR      45  36  70 SW7       29.90F
SUMMERVILLE    FAIR      39  36  87 S5        29.92F WCI  36
BEAUFORT MCAS  CLEAR     46  40  79 SW7       29.95F
BEAUFORT ARPT  FAIR      46  39  76 SW13      29.94F
HILTON HEAD IS CLEAR     48  39  71 SW9       29.96F
WALTERBORO     SUNNY     41  36  81 SW5       29.92F
ALLENDALE      FAIR      43  37  81 CALM      29.90F

...SOUTHERN MIDLANDS AND PEE DEE...

CITY           SKY/WX    TMP DP  RH WIND       PRES   REMARKS
GEORGETOWN     FAIR      45  39  81 SW8       29.91F
KINGSTREE      FAIR      41  36  81 CALM      29.87F
ORANGEBURG     CLEAR     39  34  82 S6        29.89F WCI  35
BARNWELL         N/A     45  37  76 SW6       29.89F
AIKEN          FAIR      43  34  70 SW7       29.89F
MANNING        FAIR      46  30  53 MISG      29.88F
COLUMBIA       CLEAR     45  37  73 SW8       29.85F
SUMTER         CLEAR     46  35  65 SW13      29.83F
FLORENCE       CLEAR     43  36  76 SW9       29.85F
MYRTLE BEACH   CLEAR     48  37  65 SW9       29.91F
N MYRTLE BEACH CLEAR     50  37  61 SW13      29.89F

$$

GAZ063-065-086>088-099>101-113>116-118-119-134>141-150-121000-
...SOUTHEAST GEORGIA...

CITY           SKY/WX    TMP DP  RH WIND       PRES   REMARKS
SAVANNAH ARPT  CLEAR     43  38  82 SW6       29.97F
HUNTER AAF     CLEAR     44  38  79 SW10      29.94F
FORT STEWART   CLEAR     41  37  86 SW6       29.95F
STATESBORO     CLEAR     45  36  71 SW6       29.93F
SYLVANIA       SUNNY     45  39  81 W5        29.93F
CLAXTON        FAIR      43  40  89 CALM      29.95F

...CSRA...CENTRAL AND FAR SOUTHEAST GEORGIA...

CITY           SKY/WX    TMP DP  RH WIND       PRES   REMARKS
THOMSON        CLEAR     41  35  79 W7        29.91F
AUGUSTA-BUSH   CLEAR     44  35  70 SW5       29.89F
AUGUSTA-DANIEL CLEAR     46  35  65 SW7       29.88F
SWAINSBORO     FAIR      45  37  76 NW5       29.93F
VIDALIA        CLEAR     43  41  93 SW7       29.94F
EASTMAN        FAIR      45  34  65 CALM      29.97F
HAZLEHURST     FAIR      47  37  68 SW7       29.94F
ALMA           CLEAR     40  37  89 CALM      29.97F
WAYCROSS       CLEAR     43  40  90 SW6       29.98F
JESUP          NOT AVBL
BAXLEY         FAIR      39  39 100 CALM      29.96F
BRUNSWICK      CLEAR     46  43  87 SW9       30.00F
SAINT SIMONS   CLEAR     48  44  86 SW9       29.99F

$$

SCZ027-028-034-036>038-045-046-048>050-GAZ119-141-121000-
...LAKE AND SUPPLEMENTAL COASTAL OBSERVATIONS...

STATION/POSITION TIME  TEMP    WIND        PRES    WAVE   SWELL
                       AIR SEA DIR/SP/G            HT/PER HT/PER/DIR
                 (UTC) (F)     (DEG/KT/KT) (MB)    (FT/S) (FT/S/D)
WINYAH BAY       0845   48     240/  7     1013.0F
LAKE MURRAY      0850   51     230/ 11/ 16 1009.8F
ACE BASIN NERRS  0845   45        CALM     1014.0F
FORT PULASKI     0900   49 55  260/  7/ 11 1014.7
SAPELO ISLAND    NOT AVBL

$$

ANZ835-935-AMZ111-154-330-350-352-354-370-450-454-472-121000-
...C-MAN AND BUOY OBSERVATIONS...

STATION/POSITION TIME  TEMP    WIND        PRES    WAVE   SWELL
                       AIR SEA DIR/SP/G            HT/PER HT/PER/DIR
                 (UTC) (F)     (DEG/KT/KT) (MB)    (FT/S) (FT/S/D)
BUOY 41004       0910      74  250/ 23/ 29 1013.3
BUOY 41008       0850   56 61  220/ 19/ 23 1014.8F   3/ 5
FOLLY BEACH CMAN 0900   52     230/  8/ 11 1014.1F
CAPERS NEARSHORE 0808   53 57  250/ 17/ 25 1013.5F
FRIPP NEARSHORE  0908   51 57  230/ 27/ 27 1013.7R


STATION/POSITION TIME  TEMP    WIND        PRES    WAVE   SWELL
                       AIR SEA DIR/SP/G            HT/PER HT/PER/DIR
                 (UTC) (F)     (DEG/KT/KT) (MB)    (FT/S) (FT/S/D)
5E ST. MARYS GA  0900      60                N/A     2/ 3
FRYING PAN BUOY  0910   61 63  250/ 21/ 25 1012.3
BUOY 41025       0910   58 76  260/ 19/ 25 1011.4
CAPE LOOKOUT NC  0900          240/  9/ 13 1011.9F
BUOY 41002       0850   68 76  230/ 17/ 21 1014.2F   4/ 6   2/200/10
BUOY 41010       NOT AVBL
ST AUGUSTINE FL  0900   46 62  240/  7/  8 1017.2F


$$




USA.gov is the U.S. government's official web portal to all federal, state and local government web resources and services.